QPF
0.01 0.04 0.08 0.12 0.14 0.12 0.07 0.04 0.03 0.02 0.01 0.00 0.00 0.00 0.01 0.02 0.03 0.05 0.12 0.12 0.06 0.07 0.07 0.07 0.08 0.07 0.07 0.05 0.04 0.04 0.10 0.08 0.06 0.10 0.14 0.07 0.08 0.11 0.07 0.06 0.07 0.06 0.07 0.07 0.06 0.07 0.11 0.14 0.18
0.04 0.10 0.11 0.14 0.17 0.11 0.06 0.04 0.02 0.01 0.00 0.00 0.00 0.00 0.00 0.02 0.02 0.05 0.11 0.11 0.06 0.05 0.04 0.04 0.06 0.06 0.05 0.05 0.05 0.07 0.08 0.07 0.09 0.12 0.18 0.14 0.14 0.13 0.07 0.06 0.08 0.09 0.08 0.06 0.06 0.08 0.12 0.14 0.20
0.07 0.14 0.16 0.15 0.15 0.09 0.05 0.04 0.01 0.00 0.00 0.00 0.01 0.01 0.01 0.04 0.04 0.07 0.09 0.06 0.04 0.03 0.03 0.03 0.04 0.05 0.05 0.07 0.08 0.07 0.06 0.06 0.09 0.13 0.14 0.14 0.11 0.09 0.06 0.07 0.09 0.11 0.09 0.06 0.07 0.08 0.12 0.13 0.14
0.12 0.13 0.15 0.13 0.12 0.09 0.05 0.03 0.01 0.01 0.00 0.00 0.01 0.01 0.02 0.04 0.03 0.06 0.06 0.02 0.01 0.02 0.02 0.03 0.04 0.05 0.05 0.05 0.05 0.05 0.04 0.04 0.09 0.13 0.13 0.13 0.11 0.10 0.08 0.08 0.10 0.11 0.09 0.08 0.09 0.10 0.10 0.13 0.13
0.15 0.16 0.15 0.10 0.09 0.08 0.03 0.01 0.01 0.01 0.00 0.00 0.00 0.01 0.04 0.04 0.03 0.04 0.04 0.02 0.01 0.02 0.01 0.02 0.04 0.07 0.07 0.06 0.04 0.04 0.04 0.04 0.07 0.10 0.10 0.10 0.10 0.11 0.11 0.09 0.11 0.12 0.12 0.11 0.12 0.13 0.12 0.13 0.15
0.19 0.18 0.18 0.11 0.04 0.05 0.03 0.01 0.01 0.00 0.00 0.00 0.00 0.01 0.04 0.06 0.04 0.04 0.04 0.02 0.01 0.01 0.01 0.01 0.03 0.08 0.10 0.08 0.06 0.06 0.06 0.04 0.05 0.07 0.08 0.09 0.14 0.13 0.12 0.12 0.15 0.17 0.15 0.15 0.15 0.15 0.15 0.13 0.16
0.18 0.20 0.16 0.08 0.04 0.04 0.02 0.01 0.00 0.00 0.02 0.01 0.00 0.01 0.05 0.07 0.05 0.04 0.06 0.04 0.02 0.02 0.02 0.02 0.03 0.05 0.08 0.09 0.08 0.06 0.05 0.04 0.04 0.07 0.10 0.14 0.19 0.10 0.10 0.11 0.16 0.19 0.19 0.20 0.17 0.17 0.18 0.18 0.19
0.16 0.20 0.13 0.10 0.05 0.03 0.01 0.01 0.01 0.01 0.03 0.01 0.00 0.01 0.04 0.05 0.04 0.04 0.05 0.06 0.03 0.02 0.03 0.03 0.04 0.05 0.06 0.07 0.08 0.07 0.06 0.06 0.06 0.07 0.09 0.15 0.29 0.26 0.19 0.14 0.14 0.18 0.19 0.21 0.19 0.19 0.21 0.20 0.18
0.09 0.11 0.07 0.09 0.05 0.02 0.01 0.00 0.00 0.01 0.01 0.00 0.00 0.01 0.01 0.04 0.03 0.03 0.04 0.06 0.06 0.03 0.03 0.03 0.04 0.04 0.05 0.06 0.08 0.06 0.05 0.05 0.06 0.06 0.08 0.10 0.18 0.30 0.26 0.18 0.15 0.17 0.18 0.18 0.20 0.19 0.17 0.14 0.14
0.07 0.08 0.05 0.06 0.03 0.02 0.01 0.01 0.00 0.00 0.01 0.01 0.00 0.02 0.02 0.02 0.03 0.04 0.04 0.04 0.05 0.06 0.06 0.03 0.04 0.03 0.03 0.05 0.08 0.06 0.04 0.03 0.03 0.04 0.04 0.04 0.09 0.19 0.22 0.21 0.23 0.23 0.20 0.18 0.16 0.15 0.14 0.12 0.12
0.06 0.07 0.06 0.03 0.02 0.02 0.01 0.01 0.00 0.00 0.01 0.01 0.01 0.02 0.01 0.01 0.02 0.04 0.05 0.04 0.05 0.05 0.09 0.07 0.03 0.03 0.03 0.04 0.06 0.06 0.05 0.03 0.04 0.04 0.03 0.04 0.08 0.12 0.11 0.11 0.14 0.17 0.17 0.15 0.11 0.08 0.09 0.14 0.17
0.04 0.10 0.07 0.05 0.02 0.02 0.01 0.01 0.01 0.01 0.01 0.02 0.02 0.01 0.00 0.01 0.02 0.04 0.04 0.04 0.04 0.04 0.05 0.05 0.03 0.03 0.04 0.04 0.04 0.07 0.06 0.04 0.05 0.04 0.03 0.03 0.04 0.05 0.05 0.07 0.07 0.12 0.14 0.11 0.09 0.09 0.10 0.11 0.21
0.02 0.03 0.02 0.01 0.01 0.01 0.02 0.02 0.02 0.02 0.02 0.02 0.01 0.00 0.00 0.01 0.02 0.02 0.03 0.03 0.03 0.03 0.04 0.03 0.03 0.03 0.03 0.03 0.04 0.06 0.05 0.04 0.04 0.04 0.04 0.02 0.03 0.05 0.06 0.07 0.10 0.12 0.11 0.11 0.11 0.10 0.10 0.09 0.10
0.02 0.01 0.02 0.02 0.02 0.02 0.02 0.02 0.02 0.02 0.02 0.01 0.01 0.00 0.00 0.01 0.01 0.02 0.02 0.02 0.02 0.02 0.02 0.02 0.02 0.02 0.02 0.04 0.05 0.05 0.04 0.03 0.02 0.02 0.02 0.02 0.03 0.05 0.06 0.09 0.10 0.13 0.13 0.13 0.14 0.13 0.10 0.09 0.08
0.02 0.02 0.02 0.03 0.06 0.03 0.02 0.03 0.02 0.02 0.02 0.01 0.01 0.01 0.01 0.01 0.01 0.02 0.03 0.02 0.02 0.02 0.02 0.02 0.02 0.01 0.01 0.02 0.03 0.03 0.02 0.02 0.01 0.02 0.02 0.02 0.02 0.04 0.07 0.08 0.08 0.10 0.09 0.11 0.14 0.18 0.16 0.12 0.09
0.02 0.03 0.03 0.02 0.03 0.03 0.01 0.02 0.02 0.02 0.02 0.01 0.01 0.00 0.01 0.01 0.01 0.02 0.03 0.02 0.01 0.01 0.01 0.01 0.01 0.01 0.01 0.01 0.02 0.02 0.02 0.01 0.01 0.01 0.02 0.04 0.04 0.04 0.05 0.07 0.08 0.10 0.06 0.06 0.08 0.09 0.11 0.11 0.09
0.03 0.03 0.03 0.03 0.02 0.02 0.02 0.02 0.02 0.03 0.01 0.01 0.01 0.01 0.01 0.01 0.02 0.04 0.04 0.03 0.02 0.01 0.01 0.01 0.01 0.01 0.01 0.02 0.02 0.03 0.03 0.02 0.01 0.01 0.03 0.03 0.03 0.04 0.05 0.06 0.07 0.06 0.05 0.05 0.06 0.05 0.05 0.04 0.04
0.04 0.02 0.02 0.02 0.02 0.03 0.02 0.02 0.04 0.03 0.03 0.02 0.02 0.02 0.01 0.02 0.03 0.05 0.05 0.03 0.02 0.02 0.01 0.01 0.02 0.01 0.02 0.02 0.03 0.03 0.03 0.02 0.02 0.01 0.01 0.01 0.02 0.03 0.04 0.04 0.04 0.03 0.04 0.05 0.05 0.04 0.03 0.02 0.03
0.02 0.02 0.02 0.01 0.02 0.03 0.05 0.06 0.07 0.04 0.04 0.03 0.04 0.03 0.03 0.04 0.04 0.05 0.04 0.03 0.03 0.03 0.02 0.02 0.02 0.02 0.03 0.02 0.02 0.02 0.02 0.02 0.02 0.02 0.02 0.03 0.04 0.02 0.02 0.02 0.03 0.03 0.03 0.04 0.03 0.03 0.02 0.03 0.03
0.02 0.02 0.01 0.01 0.01 0.02 0.05 0.09 0.09 0.10 0.15 0.08 0.06 0.07 0.04 0.03 0.02 0.03 0.03 0.03 0.02 0.02 0.02 0.03 0.02 0.02 0.03 0.03 0.02 0.02 0.02 0.02 0.01 0.01 0.02 0.04 0.04 0.02 0.02 0.03 0.03 0.02 0.03 0.03 0.03 0.03 0.03 0.03 0.04
0.01 0.02 0.01 0.01 0.01 0.02 0.03 0.05 0.09 0.15 0.17 0.07 0.03 0.03 0.03 0.02 0.02 0.02 0.02 0.02 0.04 0.04 0.04 0.06 0.03 0.03 0.03 0.03 0.02 0.03 0.02 0.02 0.01 0.01 0.01 0.02 0.04 0.04 0.02 0.02 0.02 0.02 0.02 0.02 0.02 0.02 0.03 0.03 0.02
0.01 0.00 0.01 0.01 0.02 0.03 0.03 0.06 0.06 0.06 0.06 0.04 0.04 0.03 0.02 0.03 0.02 0.03 0.03 0.03 0.07 0.06 0.02 0.03 0.04 0.03 0.03 0.03 0.03 0.03 0.02 0.02 0.02 0.01 0.01 0.02 0.04 0.03 0.01 0.01 0.01 0.01 0.01 0.01 0.02 0.02 0.02 0.03 0.02
0.00 0.00 0.00 0.01 0.02 0.04 0.07 0.06 0.06 0.05 0.05 0.05 0.05 0.04 0.03 0.02 0.02 0.03 0.03 0.02 0.02 0.02 0.02 0.02 0.03 0.03 0.03 0.02 0.02 0.02 0.03 0.02 0.02 0.02 0.02 0.02 0.03 0.02 0.02 0.02 0.02 0.02 0.02 0.02 0.02 0.02 0.01 0.02 0.01
0.00 0.01 0.01 0.01 0.03 0.05 0.08 0.05 0.07 0.06 0.06 0.05 0.03 0.03 0.04 0.03 0.02 0.02 0.03 0.02 0.02 0.02 0.02 0.01 0.03 0.04 0.03 0.01 0.02 0.01 0.02 0.02 0.02 0.03 0.03 0.02 0.02 0.03 0.03 0.03 0.03 0.04 0.03 0.03 0.03 0.02 0.01 0.01 0.01
0.00 0.00 0.01 0.02 0.04 0.04 0.03 0.03 0.05 0.05 0.04 0.03 0.03 0.04 0.03 0.03 0.02 0.01 0.02 0.02 0.01 0.02 0.01 0.01 0.03 0.02 0.01 0.01 0.01 0.01 0.01 0.01 0.02 0.03 0.03 0.02 0.02 0.03 0.04 0.05 0.06 0.07 0.07 0.05 0.04 0.02 0.02 0.01 0.01
0.01 0.01 0.02 0.03 0.02 0.03 0.03 0.04 0.06 0.06 0.06 0.03 0.04 0.04 0.03 0.01 0.01 0.01 0.01 0.01 0.02 0.02 0.03 0.03 0.03 0.03 0.02 0.01 0.01 0.01 0.01 0.02 0.03 0.04 0.03 0.02 0.03 0.04 0.05 0.07 0.10 0.14 0.13 0.07 0.04 0.03 0.03 0.02 0.02
0.01 0.01 0.01 0.01 0.01 0.02 0.03 0.06 0.07 0.06 0.03 0.03 0.04 0.04 0.03 0.01 0.01 0.01 0.01 0.01 0.03 0.04 0.11 0.09 0.02 0.02 0.02 0.01 0.01 0.01 0.03 0.03 0.04 0.03 0.03 0.03 0.04 0.05 0.07 0.10 0.14 0.14 0.09 0.06 0.05 0.03 0.03 0.02 0.02
0.01 0.01 0.03 0.03 0.02 0.04 0.03 0.05 0.07 0.06 0.04 0.03 0.03 0.04 0.05 0.04 0.02 0.01 0.01 0.01 0.01 0.02 0.03 0.02 0.02 0.02 0.03 0.03 0.02 0.03 0.04 0.04 0.04 0.04 0.03 0.04 0.04 0.05 0.10 0.12 0.11 0.10 0.07 0.06 0.05 0.04 0.04 0.03 0.02
0.00 0.01 0.03 0.04 0.02 0.02 0.02 0.02 0.03 0.03 0.02 0.02 0.02 0.02 0.03 0.03 0.05 0.05 0.04 0.02 0.02 0.01 0.01 0.01 0.02 0.03 0.03 0.03 0.06 0.08 0.08 0.07 0.07 0.05 0.04 0.03 0.03 0.04 0.07 0.08 0.09 0.07 0.05 0.05 0.05 0.05 0.04 0.04 0.03
0.01 0.01 0.03 0.06 0.02 0.01 0.01 0.01 0.01 0.01 0.01 0.01 0.02 0.02 0.02 0.02 0.07 0.13 0.09 0.03 0.02 0.02 0.02 0.02 0.02 0.02 0.02 0.03 0.04 0.06 0.07 0.07 0.07 0.05 0.04 0.03 0.02 0.04 0.05 0.03 0.04 0.07 0.05 0.05 0.05 0.05 0.04 0.04 0.03
MSLP
1008.00 1009.02 1010.15 1011.25 1012.18 1012.86 1013.24 1013.34 1013.24 1013.02 1012.76 1012.53 1012.32 1012.11 1011.83 1011.42 1010.80 1009.93 1008.80 1007.43 1005.85 1004.11 1002.24 1000.32 998.39 996.55 994.88 993.52 992.58 992.18 992.39 993.24 994.66 996.52 998.65 1000.84 1002.89 1004.68 1006.12 1007.18 1007.95 1008.51 1008.96 1009.39 1009.85 1010.36 1010.88 1011.40 1011.87
1008.32 1009.50 1010.71 1011.79 1012.62 1013.11 1013.26 1013.12 1012.77 1012.33 1011.91 1011.55 1011.27 1011.04 1010.79 1010.44 1009.90 1009.13 1008.10 1006.81 1005.29 1003.57 1001.70 999.74 997.75 995.85 994.13 992.75 991.83 991.49 991.79 992.75 994.29 996.25 998.45 1000.67 1002.74 1004.51 1005.93 1006.97 1007.73 1008.30 1008.78 1009.24 1009.73 1010.25 1010.78 1011.29 1011.74
1008.78 1010.09 1011.34 1012.36 1013.05 1013.35 1013.27 1012.89 1012.32 1011.69 1011.11 1010.64 1010.30 1010.04 1009.79 1009.48 1009.02 1008.34 1007.42 1006.24 1004.83 1003.21 1001.43 999.53 997.61 995.76 994.11 992.80 991.97 991.71 992.09 993.12 994.69 996.64 998.79 1000.93 1002.89 1004.55 1005.86 1006.83 1007.55 1008.10 1008.59 1009.09 1009.61 1010.16 1010.70 1011.20 1011.63
1009.32 1010.70 1011.93 1012.87 1013.41 1013.53 1013.25 1012.69 1011.95 1011.19 1010.51 1009.97 1009.57 1009.29 1009.05 1008.76 1008.35 1007.75 1006.94 1005.90 1004.64 1003.19 1001.57 999.84 998.09 996.40 994.90 993.73 993.01 992.85 993.28 994.31 995.82 997.67 999.66 1001.61 1003.36 1004.82 1005.97 1006.82 1007.46 1007.99 1008.49 1009.01 1009.57 1010.14 1010.69 1011.18 1011.60
1009.81 1011.19 1012.35 1013.18 1013.58 1013.55 1013.15 1012.48 1011.67 1010.87 1010.16 1009.60 1009.20 1008.92 1008.67 1008.40 1008.03 1007.51 1006.80 1005.91 1004.83 1003.58 1002.19 1000.70 999.18 997.71 996.42 995.42 994.84 994.75 995.20 996.16 997.54 999.19 1000.94 1002.62 1004.10 1005.32 1006.27 1006.97 1007.53 1008.03 1008.53 1009.07 1009.66 1010.25 1010.81 1011.29 1011.68
1010.16 1011.45 1012.50 1013.19 1013.47 1013.34 1012.89 1012.21 1011.43 1010.68 1010.04 1009.54 1009.17 1008.91 1008.68 1008.42 1008.08 1007.62 1007.02 1006.28 1005.39 1004.38 1003.24 1002.02 1000.77 999.56 998.49 997.67 997.20 997.16 997.58 998.42 999.62 1001.02 1002.48 1003.85 1005.05 1006.01 1006.75 1007.31 1007.78 1008.24 1008.74 1009.29 1009.90 1010.50 1011.06 1011.52 1011.88
1010.27 1011.43 1012.31 1012.86 1013.03 1012.85 1012.41 1011.81 1011.16 1010.55 1010.05 1009.66 1009.39 1009.17 1008.97 1008.74 1008.43 1008.03 1007.53 1006.93 1006.24 1005.46 1004.58 1003.64 1002.65 1001.69 1000.83 1000.16 999.78 999.75 1000.10 1000.80 1001.78 1002.92 1004.09 1005.17 1006.09 1006.82 1007.37 1007.80 1008.19 1008.61 1009.10 1009.66 1010.27 1010.87 1011.41 1011.85 1012.17
1010.17 1011.13 1011.83 1012.22 1012.30 1012.11 1011.74 1011.27 1010.80 1010.39 1010.07 1009.85 1009.69 1009.55 1009.40 1009.19 1008.92 1008.58 1008.18 1007.72 1007.21 1006.64 1006.00 1005.31 1004.56 1003.81 1003.13 1002.59 1002.27 1002.23 1002.49 1003.04 1003.81 1004.71 1005.62 1006.44 1007.14 1007.67 1008.07 1008.40 1008.73 1009.11 1009.58 1010.13 1010.72 1011.31 1011.82 1012.24 1012.53
1009.91 1010.67 1011.16 1011.40 1011.40 1011.22 1010.93 1010.62 1010.35 1010.16 1010.04 1009.99 1009.95 1009.90 1009.80 1009.63 1009.40 1009.12 1008.81 1008.48 1008.13 1007.75 1007.32 1006.83 1006.29 1005.72 1005.18 1004.73 1004.44 1004.38 1004.56 1004.97 1005.57 1006.26 1006.96 1007.60 1008.12 1008.51 1008.81 1009.07 1009.34 1009.68 1010.12 1010.64 1011.21 1011.77 1012.26 1012.64 1012.92
1009.63 1010.17 1010.47 1010.56 1010.48 1010.31 1010.11 1009.95 1009.86 1009.86 1009.92 1010.01 1010.09 1010.12 1010.07 1009.95 1009.76 1009.55 1009.32 1009.10 1008.89 1008.66 1008.40 1008.08 1007.70 1007.27 1006.84 1006.47 1006.21 1006.12 1006.24 1006.54 1007.01 1007.55 1008.11 1008.61 1009.02 1009.33 1009.56 1009.76 1010.00 1010.30 1010.69 1011.17 1011.69 1012.21 1012.68 1013.05 1013.31
1009.43 1009.79 1009.92 1009.88 1009.73 1009.56 1009.42 1009.36 1009.41 1009.55 1009.74 1009.94 1010.10 1010.19 1010.19 1010.11 1009.97 1009.82 1009.67 1009.55 1009.45 1009.34 1009.21 1009.03 1008.77 1008.46 1008.12 1007.81 1007.58 1007.49 1007.57 1007.80 1008.18 1008.63 1009.09 1009.51 1009.85 1010.11 1010.31 1010.48 1010.67 1010.94 1011.28 1011.70 1012.17 1012.64 1013.08 1013.44 1013.71
1009.42 1009.63 1009.62 1009.47 1009.26 1009.08 1008.97 1008.97 1009.10 1009.31 1009.58 1009.83 1010.03 1010.16 1010.19 1010.15 1010.06 1009.96 1009.88 1009.84 1009.82 1009.81 1009.78 1009.69 1009.54 1009.32 1009.08 1008.84 1008.66 1008.59 1008.65 1008.86 1009.18 1009.56 1009.97 1010.34 1010.65 1010.88 1011.06 1011.21 1011.37 1011.59 1011.88 1012.24 1012.65 1013.08 1013.49 1013.84 1014.13
1009.62 1009.71 1009.60 1009.38 1009.12 1008.91 1008.81 1008.83 1008.97 1009.21 1009.48 1009.74 1009.95 1010.09 1010.14 1010.13 1010.09 1010.05 1010.03 1010.04 1010.08 1010.14 1010.17 1010.17 1010.10 1009.98 1009.83 1009.67 1009.57 1009.54 1009.62 1009.81 1010.10 1010.45 1010.81 1011.14 1011.42 1011.64 1011.80 1011.94 1012.08 1012.26 1012.50 1012.80 1013.15 1013.54 1013.92 1014.28 1014.58
1009.97 1009.99 1009.81 1009.54 1009.26 1009.03 1008.92 1008.93 1009.05 1009.26 1009.50 1009.73 1009.92 1010.05 1010.12 1010.15 1010.15 1010.15 1010.18 1010.23 1010.31 1010.40 1010.49 1010.54 1010.55 1010.52 1010.47 1010.42 1010.40 1010.44 1010.55 1010.75 1011.01 1011.31 1011.63 1011.92 1012.17 1012.37 1012.53 1012.65 1012.78 1012.93 1013.13 1013.39 1013.70 1014.04 1014.41 1014.76 1015.08
1010.37 1010.33 1010.12 1009.83 1009.54 1009.32 1009.20 1009.19 1009.27 1009.42 1009.61 1009.79 1009.95 1010.07 1010.16 1010.22 1010.26 1010.31 1010.37 1010.45 1010.55 1010.66 1010.77 1010.86 1010.94 1011.01 1011.06 1011.12 1011.20 1011.32 1011.47 1011.67 1011.90 1012.16 1012.41 1012.65 1012.86 1013.03 1013.17 1013.30 1013.43 1013.57 1013.76 1013.99 1014.27 1014.59 1014.93 1015.28 1015.61
1010.67 1010.58 1010.36 1010.09 1009.84 1009.64 1009.53 1009.50 1009.55 1009.64 1009.76 1009.89 1010.01 1010.13 1010.24 1010.34 1010.43 1010.52 1010.61 1010.71 1010.80 1010.91 1011.02 1011.14 1011.28 1011.43 1011.59 1011.76 1011.95 1012.14 1012.34 1012.53 1012.73 1012.92 1013.09 1013.26 1013.42 1013.56 1013.70 1013.83 1013.98 1014.15 1014.34 1014.57 1014.84 1015.14 1015.47 1015.81 1016.14
1010.77 1010.65 1010.45 1010.23 1010.05 1009.91 1009.83 1009.80 1009.81 1009.84 1009.89 1009.96 1010.05 1010.17 1010.30 1010.45 1010.59 1010.73 1010.85 1010.95 1011.04 1011.12 1011.22 1011.36 1011.53 1011.76 1012.01 1012.29 1012.58 1012.84 1013.08 1013.27 1013.42 1013.53 1013.63 1013.71 1013.81 1013.92 1014.05 1014.21 1014.40 1014.61 1014.83 1015.08 1015.36 1015.66 1015.97 1016.30 1016.62
1010.64 1010.51 1010.35 1010.23 1010.14 1010.09 1010.07 1010.05 1010.02 1009.99 1009.96 1009.97 1010.02 1010.12 1010.28 1010.48 1010.68 1010.87 1011.02 1011.13 1011.20 1011.26 1011.34 1011.47 1011.67 1011.94 1012.28 1012.66 1013.03 1013.36 1013.63 1013.82 1013.92 1013.96 1013.98 1013.98 1014.02 1014.10 1014.24 1014.44 1014.67 1014.93 1015.21 1015.49 1015.78 1016.08 1016.38 1016.69 1017.01
1010.31 1010.19 1010.13 1010.13 1010.19 1010.25 1010.29 1010.28 1010.21 1010.09 1009.97 1009.88 1009.87 1009.96 1010.14 1010.38 1010.64 1010.89 1011.08 1011.20 1011.27 1011.30 1011.35 1011.47 1011.67 1011.99 1012.38 1012.83 1013.28 1013.68 1013.98 1014.17 1014.24 1014.22 1014.16 1014.10 1014.09 1014.15 1014.29 1014.52 1014.80 1015.12 1015.44 1015.76 1016.07 1016.36 1016.65 1016.94 1017.24
1009.88 1009.83 1009.91 1010.08 1010.30 1010.49 1010.60 1010.58 1010.44 1010.20 1009.95 1009.74 1009.64 1009.68 1009.85 1010.13 1010.46 1010.77 1011.01 1011.16 1011.23 1011.25 1011.28 1011.37 1011.58 1011.90 1012.34 1012.85 1013.36 1013.81 1014.15 1014.35 1014.41 1014.35 1014.25 1014.14 1014.09 1014.13 1014.28 1014.52 1014.84 1015.20 1015.56 1015.90 1016.21 1016.49 1016.75 1017.02 1017.29
1009.47 1009.57 1009.84 1010.23 1010.63 1010.95 1011.11 1011.06 1010.81 1010.41 1009.98 1009.60 1009.36 1009.32 1009.47 1009.77 1010.15 1010.53 1010.84 1011.05 1011.14 1011.16 1011.18 1011.25 1011.44 1011.76 1012.22 1012.77 1013.33 1013.83 1014.22 1014.44 1014.51 1014.45 1014.32 1014.19 1014.11 1014.13 1014.28 1014.53 1014.86 1015.23 1015.59 1015.93 1016.22 1016.47 1016.69 1016.92 1017.17
1009.22 1009.52 1010.04 1010.66 1011.26 1011.71 1011.89 1011.77 1011.37 1010.77 1010.12 1009.53 1009.12 1008.96 1009.05 1009.36 1009.79 1010.25 1010.64 1010.91 1011.05 1011.10 1011.11 1011.17 1011.34 1011.65 1012.12 1012.68 1013.28 1013.83 1014.26 1014.53 1014.63 1014.59 1014.47 1014.33 1014.24 1014.24 1014.36 1014.60 1014.91 1015.25 1015.59 1015.89 1016.13 1016.34 1016.51 1016.69 1016.90
1009.18 1009.73 1010.53 1011.40 1012.19 1012.74 1012.92 1012.70 1012.13 1011.30 1010.39 1009.57 1008.96 1008.67 1008.69 1008.99 1009.47 1010.00 1010.48 1010.83 1011.04 1011.12 1011.14 1011.19 1011.34 1011.64 1012.09 1012.66 1013.28 1013.87 1014.35 1014.67 1014.83 1014.83 1014.73 1014.60 1014.51 1014.49 1014.58 1014.77 1015.03 1015.32 1015.60 1015.83 1016.01 1016.15 1016.26 1016.39 1016.56
1009.33 1010.18 1011.25 1012.36 1013.32 1013.93 1014.09 1013.76 1013.00 1011.94 1010.78 1009.73 1008.93 1008.50 1008.45 1008.74 1009.25 1009.85 1010.41 1010.85 1011.12 1011.25 1011.29 1011.34 1011.47 1011.75 1012.18 1012.74 1013.36 1013.98 1014.50 1014.88 1015.09 1015.15 1015.10 1014.99 1014.90 1014.86 1014.91 1015.04 1015.23 1015.44 1015.64 1015.80 1015.91 1015.97 1016.02 1016.08 1016.20
1009.62 1010.74 1012.06 1013.37 1014.44 1015.10 1015.21 1014.77 1013.84 1012.58 1011.21 1009.96 1009.01 1008.46 1008.35 1008.62 1009.16 1009.82 1010.46 1010.97 1011.31 1011.48 1011.55 1011.60 1011.72 1011.96 1012.36 1012.90 1013.51 1014.14 1014.70 1015.13 1015.40 1015.51 1015.50 1015.43 1015.35 1015.30 1015.30 1015.37 1015.49 1015.62 1015.74 1015.82 1015.85 1015.85 1015.83 1015.85 1015.92
1009.94 1011.28 1012.78 1014.22 1015.36 1016.02 1016.08 1015.53 1014.47 1013.07 1011.57 1010.20 1009.15 1008.54 1008.39 1008.65 1009.22 1009.92 1010.61 1011.18 1011.57 1011.78 1011.88 1011.92 1012.02 1012.24 1012.60 1013.11 1013.70 1014.32 1014.89 1015.36 1015.67 1015.84 1015.88 1015.85 1015.78 1015.72 1015.70 1015.72 1015.78 1015.84 1015.89 1015.90 1015.88 1015.82 1015.77 1015.74 1015.78
1010.21 1011.68 1013.27 1014.74 1015.88 1016.49 1016.49 1015.88 1014.76 1013.30 1011.76 1010.37 1009.30 1008.68 1008.53 1008.80 1009.38 1010.10 1010.82 1011.42 1011.84 1012.08 1012.19 1012.24 1012.33 1012.52 1012.85 1013.31 1013.87 1014.47 1015.04 1015.52 1015.87 1016.08 1016.17 1016.18 1016.13 1016.08 1016.05 1016.05 1016.06 1016.08 1016.08 1016.06 1016.00 1015.92 1015.84 1015.80 1015.81
1010.37 1011.86 1013.41 1014.82 1015.88 1016.41 1016.35 1015.71 1014.59 1013.18 1011.70 1010.38 1009.39 1008.83 1008.73 1009.02 1009.60 1010.32 1011.04 1011.64 1012.07 1012.32 1012.44 1012.50 1012.58 1012.76 1013.06 1013.49 1014.01 1014.58 1015.14 1015.61 1015.98 1016.22 1016.34 1016.39 1016.38 1016.35 1016.33 1016.32 1016.33 1016.33 1016.32 1016.29 1016.23 1016.15 1016.07 1016.03 1016.04
1010.41 1011.79 1013.20 1014.44 1015.34 1015.75 1015.63 1015.00 1013.96 1012.68 1011.36 1010.22 1009.38 1008.95 1008.92 1009.25 1009.84 1010.53 1011.22 1011.79 1012.20 1012.46 1012.59 1012.66 1012.76 1012.93 1013.22 1013.63 1014.12 1014.66 1015.19 1015.65 1016.01 1016.27 1016.42 1016.50 1016.53 1016.54 1016.54 1016.56 1016.58 1016.60 1016.61 1016.59 1016.55 1016.50 1016.44 1016.41 1016.43
1010.36 1011.54 1012.70 1013.69 1014.37 1014.63 1014.45 1013.85 1012.94 1011.86 1010.79 1009.88 1009.26 1009.00 1009.08 1009.45 1010.03 1010.68 1011.31 1011.84 1012.23 1012.48 1012.62 1012.73 1012.86 1013.06 1013.36 1013.76 1014.24 1014.75 1015.24 1015.68 1016.03 1016.29 1016.46 1016.57 1016.64 1016.69 1016.74 1016.80 1016.85 1016.91 1016.95 1016.96 1016.96 1016.93 1016.91 1016.91 1016.94
Thickness
5825 5823 5820 5809 5791 5777 5777 5794 5807 5810 5809 5816 5819 5812 5801 5793 5783 5776 5801 5810 5809 5808 5809 5809 5808 5809 5810 5810 5810 5809 5808 5808 5807 5807 5808 5807 5807 5806 5806 5805 5804 5803 5801 5800 5799 5797 5796 5794 5791
5827 5824 5815 5801 5780 5764 5777 5800 5806 5812 5817 5822 5819 5813 5803 5797 5804 5802 5804 5808 5810 5809 5809 5809 5809 5809 5810 5810 5810 5809 5808 5807 5807 5806 5807 5807 5807 5806 5806 5805 5804 5802 5801 5800 5798 5796 5795 5793 5791
5830 5826 5807 5792 5779 5773 5783 5805 5812 5821 5827 5824 5814 5813 5805 5800 5806 5806 5809 5811 5811 5809 5810 5810 5810 5810 5810 5809 5809 5808 5808 5807 5807 5806 5805 5805 5805 5805 5805 5804 5803 5801 5800 5799 5797 5796 5795 5793 5791
5828 5815 5804 5788 5783 5797 5805 5813 5820 5819 5822 5823 5815 5804 5807 5815 5814 5813 5815 5814 5811 5809 5810 5810 5810 5810 5810 5809 5808 5808 5808 5807 5806 5805 5804 5804 5803 5803 5803 5802 5801 5799 5798 5797 5797 5796 5794 5793 5791
5826 5807 5789 5782 5791 5809 5821 5827 5827 5818 5815 5815 5812 5799 5799 5815 5821 5819 5816 5814 5811 5810 5811 5810 5811 5810 5809 5809 5808 5807 5807 5806 5805 5804 5803 5802 5802 5802 5801 5800 5798 5797 5797 5796 5796 5796 5794 5792 5791
5812 5800 5780 5778 5795 5813 5824 5831 5827 5818 5814 5814 5809 5799 5799 5816 5817 5816 5816 5814 5814 5812 5811 5811 5811 5810 5809 5808 5808 5807 5806 5806 5805 5803 5802 5802 5802 5801 5799 5798 5797 5796 5795 5795 5796 5795 5793 5791 5789
5807 5793 5784 5790 5796 5806 5821 5833 5826 5818 5813 5815 5815 5798 5799 5811 5817 5819 5817 5815 5814 5814 5812 5811 5811 5810 5809 5808 5808 5807 5806 5805 5804 5803 5802 5801 5802 5801 5798 5796 5795 5794 5794 5793 5794 5793 5791 5789 5787
5821 5800 5791 5794 5797 5804 5825 5832 5832 5825 5818 5827 5823 5800 5795 5810 5819 5819 5817 5814 5813 5813 5812 5811 5811 5810 5809 5808 5807 5806 5805 5804 5803 5802 5801 5800 5800 5799 5797 5795 5794 5793 5792 5791 5791 5791 5789 5787 5785
5829 5796 5785 5797 5803 5810 5828 5827 5831 5836 5828 5826 5825 5817 5816 5820 5820 5815 5811 5809 5809 5810 5810 5810 5810 5809 5808 5807 5806 5805 5805 5803 5802 5801 5800 5799 5797 5796 5794 5794 5793 5792 5791 5790 5788 5787 5786 5785 5784
5818 5793 5801 5820 5825 5823 5829 5829 5829 5823 5816 5815 5817 5820 5823 5820 5816 5810 5806 5804 5805 5806 5809 5810 5809 5808 5807 5806 5805 5804 5803 5802 5800 5800 5799 5798 5796 5795 5794 5793 5793 5792 5791 5789 5786 5785 5784 5783 5782
5823 5811 5822 5833 5838 5836 5830 5830 5834 5819 5807 5812 5812 5815 5818 5816 5813 5809 5807 5806 5806 5808 5808 5809 5809 5808 5806 5805 5804 5802 5802 5800 5799 5798 5797 5796 5795 5794 5793 5791 5790 5790 5789 5787 5785 5784 5782 5781 5781
5828 5832 5838 5838 5843 5839 5833 5831 5828 5823 5819 5827 5826 5823 5819 5814 5811 5809 5807 5807 5808 5807 5807 5808 5809 5807 5806 5805 5803 5801 5800 5799 5798 5797 5796 5795 5793 5792 5791 5790 5789 5787 5786 5784 5783 5781 5780 5779 5779
5829 5833 5842 5845 5843 5841 5837 5830 5827 5824 5831 5831 5828 5824 5818 5814 5813 5813 5812 5810 5808 5806 5806 5807 5808 5806 5805 5804 5802 5801 5799 5798 5797 5796 5795 5794 5792 5790 5790 5788 5787 5785 5784 5783 5781 5780 5778 5777 5776
5834 5837 5841 5843 5842 5841 5832 5827 5825 5822 5831 5827 5824 5819 5818 5816 5814 5811 5810 5807 5807 5806 5806 5807 5806 5806 5805 5803 5801 5800 5799 5798 5796 5795 5794 5793 5792 5790 5788 5786 5785 5784 5783 5782 5780 5778 5777 5775 5774
5842 5830 5831 5836 5837 5836 5831 5813 5816 5825 5828 5821 5819 5819 5818 5816 5815 5812 5811 5809 5808 5807 5808 5807 5806 5806 5804 5802 5801 5800 5798 5797 5795 5794 5793 5792 5790 5789 5787 5785 5783 5782 5781 5780 5779 5777 5776 5774 5772
5829 5816 5805 5824 5833 5835 5820 5794 5815 5828 5824 5817 5817 5817 5815 5815 5815 5815 5814 5812 5811 5809 5807 5807 5808 5805 5803 5801 5799 5798 5797 5795 5794 5792 5792 5791 5789 5787 5785 5783 5781 5781 5780 5778 5777 5775 5772 5770 5769
5806 5794 5796 5812 5831 5831 5816 5800 5818 5829 5824 5816 5816 5815 5814 5812 5813 5814 5815 5814 5812 5810 5808 5806 5806 5803 5802 5800 5799 5797 5795 5794 5793 5791 5790 5789 5788 5786 5784 5782 5780 5779 5778 5776 5775 5772 5770 5767 5766
5790 5793 5796 5803 5823 5824 5811 5807 5819 5826 5824 5817 5815 5813 5812 5810 5811 5814 5815 5814 5813 5810 5808 5806 5804 5803 5801 5799 5796 5794 5793 5791 5791 5789 5788 5788 5786 5785 5783 5780 5779 5778 5775 5773 5772 5770 5768 5766 5765
5811 5804 5799 5810 5828 5817 5808 5806 5812 5820 5819 5814 5812 5812 5811 5810 5813 5814 5815 5814 5811 5808 5806 5804 5802 5801 5799 5795 5792 5789 5787 5787 5787 5787 5787 5786 5785 5783 5782 5779 5777 5775 5773 5771 5770 5768 5766 5764 5764
5815 5802 5801 5813 5828 5817 5803 5801 5811 5817 5816 5816 5814 5812 5811 5809 5809 5811 5812 5811 5809 5807 5805 5802 5801 5799 5798 5795 5792 5790 5788 5786 5785 5785 5785 5784 5783 5782 5780 5777 5775 5773 5771 5769 5767 5766 5763 5762 5762
5811 5805 5805 5805 5815 5814 5802 5790 5800 5811 5817 5818 5818 5817 5814 5812 5809 5809 5809 5809 5808 5805 5803 5803 5800 5798 5797 5795 5792 5789 5785 5783 5781 5780 5780 5781 5781 5780 5778 5776 5774 5771 5769 5766 5765 5764 5761 5758 5759
5803 5823 5821 5813 5796 5781 5791 5764 5788 5800 5804 5810 5812 5813 5812 5814 5812 5810 5808 5807 5806 5806 5805 5802 5800 5797 5795 5794 5789 5785 5779 5775 5776 5777 5777 5778 5778 5777 5776 5774 5772 5770 5768 5765 5764 5764 5762 5759 5756
5819 5832 5823 5814 5796 5781 5784 5767 5778 5796 5794 5803 5809 5812 5814 5815 5814 5811 5810 5808 5807 5806 5804 5801 5798 5796 5794 5792 5788 5783 5779 5776 5775 5775 5773 5773 5774 5774 5773 5771 5770 5768 5766 5764 5762 5761 5760 5758 5756
5834 5822 5811 5799 5782 5762 5775 5767 5769 5787 5799 5806 5812 5816 5816 5816 5815 5812 5810 5808 5805 5804 5802 5799 5795 5793 5792 5789 5786 5782 5778 5775 5772 5770 5769 5768 5769 5770 5769 5768 5766 5764 5763 5761 5760 5759 5758 5757 5755
5823 5790 5763 5758 5749 5753 5776 5771 5777 5805 5815 5817 5815 5815 5816 5815 5812 5809 5806 5804 5802 5800 5799 5796 5792 5789 5788 5786 5783 5781 5778 5774 5771 5769 5767 5765 5765 5764 5764 5764 5763 5761 5760 5759 5757 5756 5755 5754 5752
5812 5792 5760 5746 5742 5751 5770 5767 5789 5815 5822 5825 5822 5820 5817 5813 5811 5809 5806 5804 5801 5799 5796 5793 5789 5786 5785 5783 5781 5779 5776 5773 5770 5768 5766 5764 5763 5762 5762 5760 5759 5758 5757 5756 5754 5752 5751 5750 5748
5807 5796 5794 5767 5758 5747 5756 5774 5794 5813 5813 5816 5816 5816 5813 5811 5810 5808 5805 5803 5800 5797 5794 5792 5787 5784 5782 5780 5778 5775 5773 5771 5768 5766 5764 5762 5761 5760 5758 5757 5755 5753 5753 5752 5750 5748 5746 5745 5744
5823 5808 5782 5763 5745 5738 5752 5762 5770 5791 5799 5805 5808 5809 5809 5809 5808 5805 5803 5800 5798 5796 5793 5790 5786 5782 5779 5777 5775 5773 5769 5767 5765 5763 5761 5759 5757 5756 5753 5751 5750 5749 5748 5747 5745 5743 5742 5740 5739
5809 5801 5785 5765 5758 5742 5736 5757 5802 5802 5806 5804 5806 5809 5808 5806 5805 5803 5800 5798 5795 5792 5789 5786 5782 5779 5776 5773 5770 5767 5764 5762 5760 5758 5756 5755 5753 5751 5748 5747 5745 5744 5742 5741 5739 5738 5737 5735 5733
5813 5801 5785 5764 5759 5756 5747 5764 5817 5813 5812 5811 5808 5806 5805 5805 5803 5801 5797 5794 5791 5787 5784 5781 5778 5775 5772 5769 5765 5762 5759 5757 5755 5753 5752 5751 5748 5746 5744 5742 5740 5738 5736 5735 5734 5732 5731 5729 5727